Погода в Тулуне

Погода в Тулуне : погода сейчас, прогноз погоды и архив. Всё, что Вы хотите узнать о погоде в Тулуне!

Хотите узнать прогноз погоды в Тулуне? Тогда Вам сюда: Погода в Тулуне

Поиск расширенной информации на нашем сайте:

Другие новости

Новости СМИ2

Главная страница сайта

Новости сайта

03.07.2017

Напоминаем, что на нашем специализированном сайте Метеоцентр.Азия вы можете получить высокодетализированные автоматические прогнозы погоды по пунктам России, СНГ и мира в авиационном формате (включающие направление и скорость ветра, видимость, явления погоды, количество и форму облачности, нижнюю и верхнюю границу облачности).


Погода в Тулуне - сегодня

Время (UTC), дата Ветер
(°,м/с) 
Видим.   Явления Облачность Т
(°С)
Тd
(°С)
f(%) Тe
(°С)
Pmin
(гПа)
dP
(гПа)
Po
(мм)
O2
(г/м3)
Тmin Tmax R s Состояние
почвы
09 09.12.17 тихо ()   20000 м  {ливн. осадки}  6/3 600 м средняя, верхняя 
[Sc diur, vesp|Ac trans|Ci sp]
-13.1 -15.8 80 -13  1038.5  0.8  728  309           
12 09.12.17 080 (В) н/о  {ливн. осадки}  ясно 
-15.3 -16.4 91 -15  1039.2  0.1  728  312    -8.9  0.2     
15 09.12.17 050 (СВ) н/о  слаб. снег  10/0 верхняя 
[Cs]
-18.3 -20.2 85 -19  1040  -0.1  728  316           
18 09.12.17 070 (В) н/о  {снег}  9/0 средняя 
[Ac trans]
-20.2 -22.3 83 -20  1040  -0.5  727  318           
21 09.12.17 050 (СВ) н/о    ясно 
-23 -25.3 81 -23  1040.4  -0.3  727  322           
00 10.12.17 090 (В) н/о    8/0 средняя, верхняя 
[Ac trans|Ci fib]
-22.8 -25.2 81 -23  1040.3  -0.1  727  321  -24.3    0.0  13  неравномерный
сухой снег
100% 
03 10.12.17 070 (В) 20000 м    8/0 средняя, верхняя 
[Ac trans|Ci sp]
-26 -28.8 77 -27  1041.8  0.5  727  326  -27.1         
06 10.12.17 050 (СВ) 20000 м    3/0 верхняя 
[Ci fib]
-21.9 -24.5 79 -25  1040.9  0.3  728  320           
09 10.12.17 080 (В) 20000 м    3/0 верхняя 
[Ci fib]
-18.9 -21.7 79 -22  1039.7  -0.3  727  316           
12 10.12.17 тихо ()   н/о    ясно 
-22.7 -24.8 83 -23  1040.9  0.1  727  321    -18.2       
15 10.12.17 190 (Ю) н/о    ясно 
-22.1 -24.8 79 -22  1040.2  -0.5  727  320           
18 10.12.17 130 (ЮВ) н/о    ясно 
-23.2 -26.7 73 -28  1039.5  -0.9  726  322           
21 10.12.17 130 (ЮВ) н/о    ясно 
-23.7 -28 68 -30  1038.4  -1.2  725  322           
00 11.12.17 120 (ЮВ) н/о    3/0 верхняя 
[Ci fib]
-25.5 -29.4 70 -31  1038.9  -0.1  725  324  -25.6      13  неравномерный
сухой снег
100% 
03 11.12.17 140 (ЮВ) 20000 м    9/0 верхняя 
[Ci sp]
-24.9 -29.3 67 -30  1038.2  -0.4  725  323           
06 11.12.17 150 (ЮВ) 20000 м    9/0 верхняя 
[Cs]
-22.8 -28.3 61 -23  1037.1  -0.5  725  320           
09 11.12.17 130 (ЮВ) 20000 м    10/0 средняя 
[Ac As]
-23.4 -28.1 65 -24  1037.4  0.1  725  321           
12 11.12.17 120 (ЮВ) н/о    3/0 средняя 
[Ac trans]
-23.8 -28.7 64 -27  1037.7  0.2  725  322    -22.5       
15 11.12.17 140 (ЮВ) н/о    5/0 верхняя 
[Ci sp]
-25 -28.8 71 -26  1037.5  -0.5  725  323           
18 11.12.17 тихо ()   н/о    3/0 верхняя 
[Ci fib]
-26.8 -29.3 79 -27  1037.7  -0.3  724  325           
21 11.12.17 220 (ЮЗ) н/о    4/0 верхняя 
[Ci fib]
-27.7 -30.5 77 -28  1036.8  -1.1  723  326           
00 12.12.17 160 (Ю) н/о    10/0 верхняя 
[Cs]
-25.6 -28.3 78 -29  1034.9  -1.2  723  323  -28.4      13  неравномерный
сухой снег
100% 
03 12.12.17 170 (Ю) 20000 м    10/0 средняя, верхняя 
[Ac trans|Cs]
-24.7 -27.8 75 -28  1033.6  -1  722  321           
06 12.12.17 150 (ЮВ) 20000 м    10/0 средняя, верхняя 
[Ac trans|Cs]
-22 -25 77 -25  1031.9  -0.8  721  318           
09 12.12.17 210 (ЮЗ) 20000 м    10/0 средняя, верхняя 
[Ac trans|Cs]
-21.3 -24.1 78 -22  1031.4  -0.3  721  317           
Время (UTC), дата Ветер
(°,м/с) 
Видим.   Явления Облачность Т
(°С)
Тd
(°С)
f(%) Тe
(°С)
Pmin
(гПа)
dP
(гПа)
Po
(мм)
O2
(г/м3)
Тmin Tmax R s Состояние
почвы

Для получения пояснительной информации подведите курсор к названию столбца.

ПОГОДА в Тулуне - архив

Всё, что Вы хотите узнать о погоде в Тулуне - удобно и подробно!

Выберите нужную дату (начиная с 1 января 2015* года) и нажмите кнопку "Найти".
Будут отображены архивные сводки погоды по пункту Тулун, начиная с указанной даты.


Отображать данные в формате CSV (для использования в таблицах Excel)


Внимание! Наш архив погоды предназначен исключительно для личного некоммерческого использования в познавательных целях. Если Вам необходимы официальные справки о состоянии погоды (для производственных, юридических, коммерческих и т.п. целей), обращайтесь в органы Росгидромета.

*Примечание: данная дата относится к архиву по метеостанциям СССР (Россия, СНГ, Балтия).
Архив по метеостанциям Зарубежной Европы и Азии (кроме Китая) хранится 10 дней, по другим регионам земного шара (Китай, Африка, Америка, Австралия, Океания) - 1 день.

Тулун - район местоположения метеостанции


Название, широта, долгота, высота метеостанции:
Тулун 54.6°ш. 100.6°д. 522 м над ур. моря [Российская Федерация]

Дополнительная информация

В oтличие oт бoльшинства пoгoдных сайтoв мы публикуем пoдрoбную метеoинфoрмацию в детальнoм прoфессиoнальнoм фoрмате.

Характеристики температуры и влажнoсти вoздуха измеряются на высoте 2 м в тени вдали oт зданий и деревьев.
Скoрoсть ветра измеряется на высoте 10 м (на урoвне рoста челoвека скoрoсть ветра ниже в 1.5-2 раза). Если метеoстанция нахoдится в гoрoде или в лесу, тo скoрoсть ветра занижена на 2-4 м/с пo сравнению с oткрытым местoм. Скoрoсть ветра над акватoриями крупных рек и oзёр, а также на вершинах хoлмoв на 2-5 м/с выше, чем в oбычных услoвиях.
Атмoсфернoе давление в разных тoчках местнoсти мoжет значительнo oтличаться oт давления на метеoстанции, в зависимoсти oт услoвий рельефа (при пoдъёме на 10 м давление пoнижается примернo на 1 мм рт.ст.).